Ozona, TX

4:00 PM CST on February 08, 2016 (GMT -0600)
Ozona Municipal

Weather History for KOZA - October, 2013

Change the Weather History Date:

Tuesday, October 29, 2013

  Actual Average Record
Temperature  
Mean Temperature 73 °F -  
Max Temperature 77 °F 73 °F 78 °F (2014)
Min Temperature 69 °F 48 °F 29 °F (2011)
Cooling Degree Days 8    
Growing Degree Days 23 (Base 50)    
Moisture  
Dew Point 64 °F    
Average Humidity 75    
Maximum Humidity 83    
Minimum Humidity 65    
Precipitation  
Precipitation 0.00 in - - ()
Sea Level Pressure  
Sea Level Pressure 30.04 in    
Wind  
Wind Speed 12 mph (South)    
Max Wind Speed 18 mph    
Max Gust Speed 25 mph    
Visibility 10 miles    
Events      
Averages and records for this station are not official NWS values.
T = Trace of Precipitation, MM = Missing Value Source: NWS Daily Summary

Daily Weather History Graph

Daily Weather History Graph

Search for Another Location

Airport or City:

Trip Planner

Search our weather history database for the weather conditions in past years. The results will help you decide how hot, cold, wet, or windy it might be!

Date:

Astronomy

Oct. 29, 2013 Rise Set
Actual Time 7:57 AM CDT 6:58 PM CDT
Civil Twilight 7:32 AM CDT 7:23 PM CDT
Nautical Twilight 7:04 AM CDT 7:52 PM CDT
Astronomical Twilight 6:36 AM CDT 8:20 PM CDT
Moon 3:09 AM CDT (10/29) 3:56 PM CDT (10/29)
Length of Visible Light 11h 50m
Length of Day
11h 01m
Waning Crescent, 25% of the Moon is Illuminated
Oct 29
Waning Crescent
Nov 3
New
Nov 9
First Quarter
Nov 17
Full
Nov 25
Last Quarter

Hourly Weather History & Observations

Time (CDT) Temp. Dew Point Humidity Pressure Visibility Wind Dir Wind Speed Gust Speed Precip Events Conditions
12:15 AM 69.8 °F 62.6 °F 78% 30.05 in 10.0 mi South 9.2 mph - N/A   Clear
12:35 AM 69.8 °F 62.6 °F 78% 30.04 in 10.0 mi SSE 11.5 mph 16.1 mph N/A   Clear
12:55 AM 69.8 °F 62.6 °F 78% 30.04 in 10.0 mi South 10.4 mph 16.1 mph N/A   Clear
1:15 AM 69.8 °F 62.6 °F 78% 30.03 in 10.0 mi South 8.1 mph - N/A   Clear
1:35 AM 69.8 °F 62.6 °F 78% 30.03 in 10.0 mi South 10.4 mph - N/A   Clear
1:55 AM 69.8 °F 62.6 °F 78% 30.03 in 10.0 mi South 11.5 mph 19.6 mph N/A   Clear
2:15 AM 69.8 °F 62.6 °F 78% 30.03 in 10.0 mi South 10.4 mph 17.3 mph N/A   Clear
2:35 AM 69.8 °F 62.6 °F 78% 30.03 in 10.0 mi South 12.7 mph 20.7 mph N/A   Clear
2:55 AM 69.8 °F 62.6 °F 78% 30.03 in 10.0 mi South 13.8 mph 19.6 mph N/A   Mostly Cloudy
3:15 AM 69.8 °F 62.6 °F 78% 30.03 in 10.0 mi South 13.8 mph 25.3 mph N/A   Overcast
3:35 AM 69.8 °F 64.4 °F 83% 30.03 in 10.0 mi South 12.7 mph 21.9 mph N/A   Overcast
3:55 AM 69.8 °F 64.4 °F 83% 30.03 in 10.0 mi South 15.0 mph 24.2 mph N/A   Overcast
4:15 AM 69.8 °F 64.4 °F 83% 30.03 in 10.0 mi South 13.8 mph - N/A   Mostly Cloudy
5:55 AM 69.8 °F 64.4 °F 83% 30.04 in 10.0 mi South 13.8 mph 21.9 mph N/A   Overcast
6:55 AM 69.8 °F 64.4 °F 83% 30.05 in 10.0 mi South 12.7 mph 18.4 mph N/A   Overcast
7:55 AM 69.8 °F 64.4 °F 83% 30.05 in 10.0 mi South 12.7 mph 19.6 mph N/A   Overcast
9:35 AM 69.8 °F 64.4 °F 83% 30.09 in 10.0 mi South 11.5 mph 20.7 mph N/A   Overcast
9:55 AM 71.6 °F 66.2 °F 83% 30.09 in 10.0 mi South 11.5 mph 18.4 mph N/A   Mostly Cloudy
10:15 AM 71.6 °F 64.4 °F 78% 30.10 in 10.0 mi South 11.5 mph - N/A   Mostly Cloudy
10:35 AM 71.6 °F 64.4 °F 78% 30.10 in 10.0 mi South 13.8 mph - N/A   Mostly Cloudy
10:55 AM 71.6 °F 64.4 °F 78% 30.10 in 10.0 mi South 15.0 mph 18.4 mph N/A   Mostly Cloudy
11:15 AM 71.6 °F 64.4 °F 78% 30.10 in 10.0 mi South 13.8 mph 23.0 mph N/A   Mostly Cloudy
11:35 AM 71.6 °F 64.4 °F 78% 30.10 in 10.0 mi South 12.7 mph 16.1 mph N/A   Mostly Cloudy
11:55 AM 71.6 °F 64.4 °F 78% 30.09 in 10.0 mi South 16.1 mph 20.7 mph N/A   Mostly Cloudy
12:15 PM 73.4 °F 64.4 °F 73% 30.09 in 10.0 mi South 17.3 mph 23.0 mph N/A   Mostly Cloudy
12:35 PM 75.2 °F 66.2 °F 73% 30.08 in 10.0 mi South 17.3 mph 21.9 mph N/A   Scattered Clouds
12:55 PM 73.4 °F 64.4 °F 73% 30.07 in 10.0 mi South 15.0 mph - N/A   Mostly Cloudy
1:15 PM 75.2 °F 64.4 °F 69% 30.06 in 10.0 mi South 12.7 mph 20.7 mph N/A   Mostly Cloudy
1:35 PM 75.2 °F 64.4 °F 69% 30.05 in 10.0 mi South 13.8 mph 18.4 mph N/A   Mostly Cloudy
1:55 PM 75.2 °F 64.4 °F 69% 30.04 in 10.0 mi South 17.3 mph - N/A   Overcast
2:15 PM 75.2 °F 64.4 °F 69% 30.02 in 10.0 mi South 12.7 mph - N/A   Mostly Cloudy
2:35 PM 75.2 °F 64.4 °F 69% 30.02 in 10.0 mi South 12.7 mph - N/A   Mostly Cloudy
2:55 PM 75.2 °F 64.4 °F 69% 30.01 in 10.0 mi South 16.1 mph 19.6 mph N/A   Overcast
3:15 PM 77.0 °F 64.4 °F 65% 30.00 in 10.0 mi South 18.4 mph - N/A   Overcast
3:35 PM 77.0 °F 64.4 °F 65% 30.00 in 10.0 mi South 12.7 mph 19.6 mph N/A   Mostly Cloudy
3:55 PM 77.0 °F 64.4 °F 65% 30.00 in 10.0 mi South 13.8 mph 19.6 mph N/A   Mostly Cloudy
4:15 PM 77.0 °F 64.4 °F 65% 29.99 in 10.0 mi South 13.8 mph 19.6 mph N/A   Mostly Cloudy
4:35 PM 77.0 °F 64.4 °F 65% 29.99 in 10.0 mi South 17.3 mph 24.2 mph N/A   Overcast
4:55 PM 77.0 °F 64.4 °F 65% 29.99 in 10.0 mi SSE 12.7 mph 18.4 mph N/A   Mostly Cloudy
5:15 PM 75.2 °F 62.6 °F 65% 29.98 in 10.0 mi South 13.8 mph 17.3 mph N/A   Mostly Cloudy
5:35 PM 75.2 °F 62.6 °F 65% 30.00 in 10.0 mi South 11.5 mph 19.6 mph N/A   Scattered Clouds
5:55 PM 75.2 °F 64.4 °F 69% 30.00 in 10.0 mi South 11.5 mph 21.9 mph N/A   Scattered Clouds
6:15 PM 73.4 °F 62.6 °F 69% 30.00 in 10.0 mi South 12.7 mph - N/A   Mostly Cloudy
6:35 PM 73.4 °F 64.4 °F 73% 30.00 in 10.0 mi SSE 13.8 mph 18.4 mph N/A   Mostly Cloudy
6:55 PM 73.4 °F 64.4 °F 73% 30.01 in 10.0 mi South 9.2 mph - N/A   Scattered Clouds
7:15 PM 73.4 °F 64.4 °F 73% 30.02 in 10.0 mi South 9.2 mph - N/A   Scattered Clouds
7:35 PM 73.4 °F 64.4 °F 73% 30.01 in 10.0 mi SSE 15.0 mph - N/A   Mostly Cloudy
7:55 PM 71.6 °F 64.4 °F 78% 30.02 in 10.0 mi South 10.4 mph - N/A   Scattered Clouds
8:15 PM 71.6 °F 64.4 °F 78% 30.02 in 10.0 mi SSE 11.5 mph 18.4 mph N/A   Scattered Clouds
8:35 PM 71.6 °F 64.4 °F 78% 30.02 in 10.0 mi SSE 9.2 mph - N/A   Clear
8:55 PM 71.6 °F 64.4 °F 78% 30.04 in 10.0 mi South 9.2 mph - N/A   Clear
9:15 PM 71.6 °F 62.6 °F 73% 30.04 in 10.0 mi South 9.2 mph - N/A   Clear
9:35 PM 71.6 °F 64.4 °F 78% 30.04 in 10.0 mi SSE 4.6 mph - N/A   Clear
9:55 PM 71.6 °F 64.4 °F 78% 30.04 in 10.0 mi SSE 5.8 mph - N/A   Clear
10:15 PM 71.6 °F 64.4 °F 78% 30.03 in 10.0 mi SSE 6.9 mph - N/A   Clear
10:35 PM 71.6 °F 64.4 °F 78% 30.03 in 10.0 mi SSE 8.1 mph - N/A   Clear
10:55 PM 71.6 °F 64.4 °F 78% 30.03 in 10.0 mi SSE 5.8 mph - N/A   Scattered Clouds
11:15 PM 71.6 °F 64.4 °F 78% 30.02 in 10.0 mi SSE 6.9 mph - N/A   Scattered Clouds
11:35 PM 71.6 °F 64.4 °F 78% 30.03 in 10.0 mi SSE 5.8 mph - N/A   Scattered Clouds
11:55 PM 71.6 °F 64.4 °F 78% 30.03 in 10.0 mi South 3.5 mph - N/A   Scattered Clouds